Location: Eldred Sherwood Park Lake Dam
(42.9416°N, 93.5655°W)
Time: 19:14:27
(UTC+00:00)

SR - Visible Passes

Search period start: 13 November 2024 00:00
Search period end: 23 November 2024 00:00
Orbit: 575 x 857 km, 66.7° (Epoch: 12 November)

Date Brightness Start Highest point End Pass type
(mag) Time Alt. Az. Time Alt. Az. Time Alt. Az.
13 Nov ? 12:03:27 10° N 12:07:09 19° NE 12:11:00 10° E visible
14 Nov ? 11:11:37 10° NNE 11:13:13 11° NE 11:14:50 10° NE visible
15 Nov ? 11:58:11 10° N 12:02:37 27° NE 12:07:18 10° ESE visible
16 Nov ? 11:05:41 10° N 11:08:50 16° NE 11:12:07 10° ENE visible
17 Nov ? 11:53:03 10° NNW 11:58:00 40° NE 12:03:15 10° ESE visible
18 Nov ? 11:00:16 10° N 11:04:22 22° NE 11:08:38 10° E visible
18 Nov ? 12:41:18 10° NW 12:46:37 69° WSW 12:52:14 10° SSE visible
19 Nov ? 10:08:35 11° NNE 10:10:28 13° NE 10:13:00 10° ENE visible
19 Nov ? 11:48:01 10° NNW 11:53:17 60° NE 11:58:52 10° SE visible
20 Nov ? 10:56:14 16° N 10:59:46 32° NE 11:04:45 10° ESE visible
20 Nov ? 12:36:37 10° NW 12:41:42 44° WSW 12:47:03 10° S visible
21 Nov ? 10:04:46 17° NNE 10:06:01 19° NE 10:09:49 10° E visible
21 Nov ? 11:43:57 15° NNW 11:48:28 89° WSW 11:54:10 10° SSE visible
22 Nov ? 09:13:22 10° NE 09:13:22 10° NE 09:13:27 10° NE visible
22 Nov ? 10:52:33 28° N 10:55:04 47° NE 11:00:30 10° SE visible
22 Nov ? 12:32:07 10° NW 12:36:42 28° WSW 12:41:27 10° SSW visible
